Location: Aufkirchen
(47.9603°N, 11.3653°E)
Time: 17:17:06
(UTC+01:00)

Transit 2A - All Passes

Search period start: 26 November 2020 00:00
Search period end: 06 December 2020 00:00
Orbit: 594 x 964 km, 66.7° (Epoch: 26 November)

Date Brightness Start Highest point End Pass type
(mag) Time Alt. Az. Time Alt. Az. Time Alt. Az.
26 Nov - 00:01:11 10° NNW 00:03:44 13° NNE 00:06:12 10° NE night (unlit)
26 Nov - 01:43:56 10° NNW 01:48:48 32° NE 01:53:14 10° ESE night (unlit)
26 Nov - 03:27:10 10° NW 03:32:16 50° WSW 03:36:50 10° S night (unlit)
26 Nov - 16:29:31 10° SE 16:32:13 13° ESE 16:34:51 10° ENE daylight
26 Nov - 18:08:14 10° SSW 18:14:30 67° ESE 18:20:28 10° NE visible
26 Nov - 19:52:37 10° WSW 19:58:11 33° NW 20:03:28 10° NNE visible
26 Nov - 21:40:20 10° NW 21:43:15 14° NNW 21:46:04 10° NNE visible
26 Nov - 23:27:02 10° NNW 23:29:05 12° N 23:31:04 10° NNE night (unlit)
27 Nov - 01:09:51 10° NNW 01:14:23 25° NE 01:18:32 10° E night (unlit)
27 Nov - 02:52:53 10° NW 02:58:11 72° WSW 03:02:54 10° SSE night (unlit)
27 Nov - 17:34:20 10° S 17:40:24 50° ESE 17:46:12 10° NE visible
27 Nov - 19:17:56 10° WSW 19:23:49 41° NW 19:29:22 10° NNE visible
27 Nov - 21:05:08 10° WNW 21:08:37 15° NNW 21:11:58 10° NNE visible
27 Nov - 22:52:44 10° NNW 22:54:24 11° N 22:56:02 10° NNE night (unlit)
28 Nov - 00:35:48 10° NNW 00:39:53 21° NNE 00:43:42 10° E night (unlit)
28 Nov - 02:18:41 10° NNW 02:24:02 82° NE 02:28:48 10° SE night (unlit)
28 Nov - 04:03:30 10° WNW 04:06:21 15° WSW 04:09:04 10° SW night (unlit)
28 Nov - 17:00:39 10° S 17:06:21 37° ESE 17:11:50 10° NE visible
28 Nov - 18:43:22 10° SW 18:49:31 52° NW 18:55:17 10° NNE visible
28 Nov - 20:30:01 10° WNW 20:34:02 18° NNW 20:37:54 10° NNE visible
28 Nov - 22:18:11 10° NNW 22:19:43 11° N 22:21:13 10° NNE visible
29 Nov - 00:01:45 10° NNW 00:05:22 17° NNE 00:08:45 10° ENE night (unlit)
29 Nov - 01:44:31 10° NNW 01:49:49 59° NE 01:54:32 10° SE night (unlit)
29 Nov - 03:28:35 10° WNW 03:32:29 22° WSW 03:36:05 10° SSW night (unlit)
29 Nov - 16:27:12 10° SSE 16:32:22 27° ESE 16:37:20 10° NE daylight
29 Nov - 18:08:58 10° SW 18:15:15 68° NW 18:21:10 10° NNE visible
29 Nov - 19:54:56 10° W 19:59:31 21° NNW 20:03:51 10° NNE visible
29 Nov - 21:43:18 10° NNW 21:45:01 11° N 21:46:42 10° NNE visible
29 Nov - 23:27:42 10° NNW 23:30:47 15° NNE 23:33:43 10° NE night (unlit)
30 Nov - 01:10:24 10° NNW 01:15:31 44° NE 01:20:08 10° ESE night (unlit)
30 Nov - 02:54:00 10° NW 02:58:32 32° WSW 03:02:41 10° S night (unlit)
30 Nov - 15:54:04 10° SSE 15:58:24 20° ESE 16:02:38 10° ENE daylight
30 Nov - 17:34:42 10° SSW 17:41:02 88° WNW 17:47:01 10° NE visible
30 Nov - 19:20:00 10° W 19:25:01 25° NW 19:29:47 10° NNE visible
30 Nov - 21:08:11 10° NNW 21:10:20 12° N 21:12:26 10° N visible
30 Nov - 22:53:38 10° NNW 22:56:10 13° NNE 22:58:36 10° NE night (unlit)
01 Dec - 00:36:18 10° NNW 00:41:10 33° NE 00:45:35 10° ESE night (unlit)
01 Dec - 02:19:35 10° NW 02:24:33 46° WSW 02:29:01 10° S night (unlit)
01 Dec - 15:21:29 10° SE 15:24:31 14° ESE 15:27:29 10° ENE daylight
01 Dec - 17:00:36 10° SSW 17:06:52 71° ESE 17:12:48 10° NE visible
01 Dec - 18:45:09 10° W 18:50:36 31° NW 18:55:45 10° NNE visible
01 Dec - 20:33:00 10° NW 20:35:41 13° NNW 20:38:17 10° NNE visible
01 Dec - 22:19:31 10° N 22:21:31 12° N 22:23:27 10° NNE visible
02 Dec - 00:02:14 10° NNW 00:06:45 26° NE 00:10:53 10° E night (unlit)
02 Dec - 01:45:17 10° NW 01:50:29 67° WSW 01:55:07 10° SSE night (unlit)
02 Dec - 16:26:40 10° SSW 16:32:46 53° ESE 16:38:32 10° NE daylight
02 Dec - 18:10:25 10° WSW 18:16:14 39° NW 18:21:40 10° NNE visible
02 Dec - 19:57:47 10° NW 20:01:03 15° NNW 20:04:12 10° NNE visible
02 Dec - 21:45:18 10° N 21:46:51 11° N 21:48:21 10° NNE visible
02 Dec - 23:28:11 10° NNW 23:32:17 21° NNE 23:36:05 10° E night (unlit)
03 Dec - 01:11:04 10° NW 01:16:20 87° NE 01:21:03 10° SE night (unlit)
03 Dec - 02:56:08 10° WNW 02:58:35 14° WSW 03:00:57 10° SW night (unlit)
03 Dec - 15:52:55 10° S 15:58:42 39° ESE 16:04:11 10° NE daylight
03 Dec - 17:35:51 10° WSW 17:41:54 49° NW 17:47:35 10° NNE visible
03 Dec - 19:22:37 10° WNW 19:26:29 17° NNW 19:30:09 10° NNE visible
03 Dec - 21:10:50 10° NNW 21:12:09 11° N 21:13:26 10° NNE visible
03 Dec - 22:54:09 10° NNW 22:57:45 18° NNE 23:01:09 10° ENE night (unlit)
04 Dec - 00:36:54 10° NNW 00:42:08 63° NE 00:46:49 10° SE night (unlit)
04 Dec - 02:21:05 10° WNW 02:24:43 20° WSW 02:28:08 10° SSW night (unlit)
04 Dec - 15:19:25 10° SSE 15:24:41 29° ESE 15:29:44 10° NE daylight
04 Dec - 17:01:24 10° SW 17:07:37 64° NW 17:13:28 10° NNE visible
04 Dec - 18:47:32 10° WNW 18:51:56 20° NNW 18:56:06 10° NNE visible
04 Dec - 20:36:00 10° NNW 20:37:28 11° N 20:38:53 10° N visible
04 Dec - 22:20:06 10° NNW 22:23:11 15° NNE 22:26:07 10° ENE night (unlit)
05 Dec - 00:02:46 10° NNW 00:07:52 46° NE 00:12:26 10° ESE night (unlit)
05 Dec - 01:46:27 10° NW 01:50:48 29° WSW 01:54:48 10° S night (unlit)
05 Dec - 14:46:13 10° SSE 14:50:43 21° ESE 14:55:05 10° ENE daylight
05 Dec - 16:27:06 10° SW 16:33:25 84° NW 16:39:19 10° NE daylight
05 Dec - 18:12:33 10° W 18:17:26 24° NW 18:22:04 10° NNE visible
05 Dec - 20:00:53 10° NNW 20:02:47 11° N 20:04:38 10° N visible
05 Dec - 21:46:04 10° N 21:48:35 13° NNE 21:50:59 10° NE visible
05 Dec - 23:28:40 10° NNW 23:33:31 35° NE 23:37:55 10° ESE night (unlit)
